Wind_Speed
29 29 29 29 29 29 30 30 31 31 33 35 36 38 39 41 43 45 45 44 44 44 45 45 46 47 48 49 50 50 49 48 47 46 45 45 45 44 45 44 44 45 46 44 43 42 42 41 41 40 39 37 37 36 35 33 30 28 27 22 16 12 11 12 12 13 13 13 14 15 13 9 3 4 8 10 9 11 14 16 19 22 22 19 18 19 21 21
31 31 31 31 30 30 30 30 31 31 31 32 34 37 39 40 42 44 45 46 45 46 46 46 47 47 48 50 51 51 51 50 48 47 47 46 46 46 46 45 45 46 47 47 45 44 43 43 42 42 41 39 39 38 37 35 32 30 29 24 17 12 14 14 12 14 16 13 11 12 12 7 3 3 5 7 8 11 12 14 17 20 23 20 18 18 20 20
32 32 33 33 33 32 32 32 32 32 32 32 32 34 37 40 41 42 44 46 47 47 47 47 48 48 50 51 52 52 52 51 50 48 48 47 48 48 48 46 46 46 48 49 47 45 45 44 43 43 42 41 40 40 39 37 34 32 30 26 18 14 16 14 12 16 18 14 11 8 7 5 4 2 3 4 6 10 11 11 14 17 21 22 19 18 18 20
33 32 33 33 34 34 34 34 34 33 33 34 33 33 34 37 40 42 43 45 47 48 48 49 49 49 51 51 52 53 54 53 52 50 49 49 50 50 50 48 47 48 49 50 49 47 46 46 45 44 44 43 42 41 41 39 36 34 32 28 22 17 18 16 13 15 18 16 13 9 6 4 3 5 3 4 6 8 10 10 12 15 19 22 21 18 18 19
33 33 33 33 33 34 35 35 36 35 35 35 35 34 34 34 37 41 43 44 46 48 49 49 50 51 52 52 53 54 56 55 54 52 51 51 51 52 51 50 49 49 50 51 51 49 48 48 47 46 46 45 43 43 42 41 38 36 33 30 26 21 19 18 15 15 16 17 15 13 10 6 7 9 5 4 6 7 9 8 10 13 16 20 22 20 18 19
32 32 32 33 33 33 34 35 36 37 37 36 35 36 35 35 35 38 42 45 46 47 49 50 51 52 53 53 54 55 57 57 56 54 53 52 52 53 52 52 51 51 50 51 52 51 49 49 48 47 47 46 45 44 44 43 40 38 35 33 29 23 20 19 16 15 14 16 16 15 14 10 10 9 6 5 6 7 7 7 8 12 15 18 22 21 20 19
31 31 32 32 33 33 33 34 35 37 38 38 37 36 36 36 36 37 39 44 46 47 49 51 52 53 54 55 56 57 57 58 58 57 56 55 54 54 54 53 53 52 51 51 53 53 51 51 50 49 48 47 46 45 46 45 43 40 38 36 31 26 22 18 18 18 15 16 16 15 15 13 9 6 5 5 6 7 6 6 8 11 14 17 20 22 21 21
34 34 33 33 33 33 34 34 35 36 38 39 39 38 38 37 38 39 39 41 45 48 49 50 52 53 55 56 57 58 58 59 60 59 58 57 56 56 55 55 54 53 52 52 53 55 54 53 52 51 49 48 48 47 47 47 45 43 41 38 34 28 22 18 19 18 16 16 16 16 16 14 10 7 5 5 6 6 6 6 8 11 14 16 19 21 21 22
38 38 38 37 35 35 34 34 35 36 37 39 40 40 40 39 39 40 41 41 43 47 50 50 52 54 55 57 58 59 60 61 61 61 60 58 58 57 57 56 55 54 54 54 54 56 57 55 53 52 50 50 49 49 48 48 47 45 43 40 36 31 26 22 20 17 16 17 17 18 17 16 14 11 7 7 7 6 7 6 8 9 12 15 17 19 21 22
40 41 41 41 40 38 37 35 35 36 37 38 40 41 41 41 41 41 42 43 42 45 49 51 52 54 56 57 59 61 62 62 62 62 61 60 59 59 58 57 56 55 56 56 56 57 58 56 54 53 52 51 51 50 49 48 48 47 46 42 37 34 30 27 25 20 18 18 18 18 17 17 16 13 10 8 7 6 6 5 7 8 10 14 16 18 19 21
41 42 42 43 42 42 41 39 37 36 37 38 39 41 42 42 42 42 43 44 44 44 48 52 53 54 56 58 59 61 62 63 63 62 62 62 61 60 60 58 57 57 57 57 57 57 58 58 56 55 54 53 53 52 51 49 50 49 48 44 39 37 31 27 27 24 21 21 20 19 18 18 16 14 12 8 6 3 2 4 6 6 8 12 14 16 17 19
43 44 44 44 44 44 43 42 41 39 38 39 39 40 42 43 44 44 44 45 46 46 47 51 55 55 56 58 59 61 62 64 65 63 63 64 63 62 61 60 58 59 59 59 58 58 58 59 59 57 56 57 56 55 53 51 52 51 49 46 42 39 32 27 28 28 26 25 21 19 19 20 18 16 13 11 9 5 4 5 6 6 8 11 12 14 15 17
46 46 46 46 46 46 46 45 44 42 41 40 40 41 42 43 44 45 45 46 47 48 48 50 54 57 57 57 58 61 64 66 67 65 64 65 65 64 63 61 60 60 60 60 59 59 58 60 61 61 59 59 59 57 55 53 54 53 51 49 44 40 33 29 30 29 30 29 25 24 23 21 20 18 16 15 13 8 7 7 7 6 8 10 11 13 13 15
49 49 49 48 48 48 48 47 47 45 44 42 41 42 42 43 44 45 46 47 48 49 51 51 54 58 59 57 58 61 65 68 68 66 65 66 67 66 65 64 62 62 62 61 60 60 59 60 63 64 63 62 60 59 57 55 55 55 53 51 46 41 34 31 32 30 28 30 29 29 27 24 21 20 20 18 14 10 9 9 8 7 7 9 10 11 11 13
54 54 53 52 51 50 50 49 49 47 46 44 43 43 43 43 44 46 47 48 49 50 53 54 55 58 61 60 60 62 67 69 68 66 65 67 69 68 67 66 65 63 63 62 61 60 60 61 64 67 66 63 61 60 58 57 56 56 55 52 49 43 36 34 35 32 28 30 30 28 27 26 24 23 23 19 15 12 11 10 10 8 7 6 8 9 9 10
59 58 57 56 54 53 52 51 50 49 48 46 45 44 44 44 44 46 48 49 51 52 54 56 57 58 62 64 62 63 67 70 69 67 67 69 70 69 69 68 67 65 64 63 62 62 62 62 65 68 67 63 62 61 60 58 58 58 57 55 52 47 41 39 37 34 31 31 32 29 28 28 26 24 25 22 18 15 13 12 11 9 7 4 5 8 8 9
65 63 61 59 57 55 54 52 51 49 48 47 46 45 44 45 45 46 49 51 52 53 55 57 58 60 63 66 65 64 67 69 69 68 68 70 71 70 70 70 69 67 66 65 64 65 64 64 66 68 67 64 64 64 63 62 60 60 59 57 55 51 45 43 40 36 32 32 33 32 30 30 27 24 24 22 20 18 16 15 13 9 7 5 4 7 7 8
70 68 65 62 59 57 56 54 52 50 48 47 46 45 45 45 46 47 49 52 53 55 56 58 59 61 63 66 67 66 66 66 67 67 68 71 72 71 71 72 71 69 68 67 67 66 66 66 66 66 66 66 66 66 65 64 62 61 60 59 57 54 50 46 43 40 35 32 33 32 31 30 28 25 23 22 20 20 18 15 13 11 9 7 5 6 7 8
74 71 68 64 61 57 55 54 52 50 48 47 46 45 46 46 47 48 49 52 54 56 58 59 60 62 63 66 68 68 66 66 67 67 68 71 72 71 72 72 72 71 71 70 69 67 66 66 66 65 66 69 71 69 67 65 63 61 61 61 59 57 55 51 47 44 40 35 33 33 32 30 28 26 23 21 21 20 17 16 14 12 11 9 7 6 8 8
77 73 68 64 60 56 54 52 50 49 47 46 46 45 46 46 47 49 50 52 56 58 60 60 61 62 64 67 68 70 69 68 68 68 68 72 73 72 72 73 73 73 74 73 70 68 67 67 66 66 67 71 73 71 68 67 66 64 63 62 62 60 58 55 51 49 44 38 34 34 34 31 30 28 25 23 22 20 18 17 16 14 12 10 8 8 9 8
78 72 67 63 58 53 50 49 47 47 46 45 45 45 45 46 48 49 51 53 56 60 61 60 61 61 64 67 68 70 71 71 69 68 68 71 73 73 73 74 74 75 76 75 72 69 68 67 67 68 70 72 72 71 70 70 69 67 65 64 63 63 61 58 55 51 46 42 37 33 32 31 30 29 26 27 26 24 22 19 18 16 12 11 9 9 11 10
76 70 64 59 54 49 46 45 44 44 44 44 44 44 45 46 48 50 51 53 57 60 61 61 62 62 64 67 68 70 73 73 72 69 68 70 73 74 74 75 75 77 77 76 72 70 69 69 69 70 72 72 71 72 73 72 71 69 67 66 64 64 63 61 59 54 49 46 40 34 32 30 29 28 27 30 31 29 26 22 19 17 14 12 10 10 12 11
73 66 60 55 49 45 42 41 41 41 41 42 42 43 44 46 48 50 52 54 58 61 62 62 62 62 64 66 68 72 75 76 75 72 69 69 72 75 75 75 76 77 77 76 74 72 72 72 72 71 73 73 71 72 75 74 72 70 69 68 66 65 65 64 62 58 54 50 43 39 37 32 28 29 31 32 32 31 29 24 21 19 17 14 11 11 14 13
68 61 55 50 45 41 39 38 38 38 38 39 40 42 43 45 48 50 52 55 58 61 62 63 63 63 64 65 70 74 76 77 77 75 72 71 72 74 75 76 77 77 76 77 76 76 76 75 74 73 75 74 72 72 75 76 74 72 71 71 69 67 67 66 64 62 58 52 46 43 42 36 29 31 35 33 30 30 29 26 23 21 18 14 12 13 15 15
63 56 50 45 40 38 36 35 34 34 35 36 38 40 42 44 47 49 52 55 58 61 62 63 64 64 65 66 71 75 77 78 79 78 76 74 72 73 75 77 78 77 77 78 78 79 79 77 75 75 75 75 74 73 74 76 76 75 73 73 71 69 67 67 67 65 61 54 50 47 45 39 33 33 36 33 30 31 30 27 24 23 20 16 14 15 17 16
57 50 45 41 37 34 32 31 31 31 32 34 36 38 40 43 46 48 51 54 57 60 63 64 64 65 66 67 70 74 78 81 81 82 81 77 74 74 75 77 78 78 78 79 80 81 81 79 77 76 76 76 75 74 74 76 77 77 76 74 73 71 69 69 68 67 63 55 51 51 47 41 37 34 33 32 32 33 32 28 26 24 22 18 15 17 18 17
52 46 41 37 34 31 29 28 28 28 29 31 34 36 38 41 44 47 50 53 56 60 62 64 64 65 66 67 69 74 80 82 82 83 83 80 78 76 75 77 79 79 79 79 79 82 82 80 78 77 77 76 75 74 74 75 77 79 78 76 75 75 73 71 69 68 65 57 52 51 48 45 43 38 34 32 34 34 32 30 29 26 24 22 20 19 18 17
47 42 38 34 30 27 25 25 25 25 27 29 31 34 36 39 42 46 49 52 56 58 61 63 64 65 65 66 69 74 79 82 83 84 84 82 81 79 76 77 79 80 80 78 79 81 82 81 80 79 78 77 76 75 75 76 77 79 81 79 78 78 76 73 70 69 67 63 57 51 48 48 48 46 41 36 35 35 33 32 31 28 26 25 24 21 19 18
43 38 34 30 27 23 22 22 22 23 24 26 29 32 34 37 40 43 47 50 54 56 59 61 63 64 64 66 70 74 78 82 85 85 84 84 84 82 80 78 78 79 79 78 78 81 82 82 82 81 79 79 78 78 77 77 77 79 81 81 81 81 79 75 72 70 69 68 64 56 51 50 51 51 48 43 39 36 34 33 32 32 30 28 26 25 22 19
40 35 31 27 23 20 19 18 19 20 22 24 27 30 32 35 37 40 44 48 51 54 57 59 61 62 64 67 70 73 76 81 85 85 84 84 85 84 83 80 77 77 78 78 80 81 82 83 83 83 82 82 81 79 78 77 77 78 79 81 83 84 82 79 75 73 71 71 68 62 57 54 53 53 50 47 44 38 34 33 33 34 33 31 30 30 27 21
37 32 28 23 19 17 16 16 16 18 20 22 25 27 30 32 35 38 41 45 48 51 54 58 60 62 65 67 68 71 74 78 83 86 85 84 85 85 84 81 78 76 77 79 82 84 84 83 83 83 84 85 83 81 79 78 79 79 79 81 85 85 84 82 78 75 73 72 71 67 64 58 55 55 51 47 45 42 38 36 35 34 34 33 32 32 30 25
34 29 24 19 16 14 14 14 15 17 19 21 22 24 27 29 32 35 38 42 45 49 53 56 59 61 64 65 66 69 73 76 81 85 86 85 86 86 85 82 80 78 77 80 83 85 86 85 84 84 85 86 84 83 81 80 81 82 80 81 84 85 85 83 79 77 75 74 73 71 69 64 59 57 54 51 48 44 41 39 37 35 34 34 34 34 32 28
31 25 20 15 13 13 12 13 14 16 17 19 20 22 24 26 29 32 35 39 43 47 51 55 57 59 61 63 65 68 70 73 78 83 86 86 86 86 86 85 83 81 81 82 84 86 87 87 86 86 86 86 85 84 82 82 82 81 81 81 81 83 84 84 82 80 78 76 74 73 73 71 68 62 59 57 54 50 46 42 39 37 36 35 35 35 33 28
27 22 16 13 12 11 12 13 14 15 17 18 19 20 22 24 27 31 34 38 41 45 49 53 55 57 59 61 63 66 68 72 76 80 85 87 86 85 85 86 86 86 86 84 84 86 88 88 88 88 87 86 85 85 84 82 81 81 82 81 80 81 83 84 84 82 81 78 76 74 73 73 73 69 65 61 57 53 51 48 43 42 40 39 38 37 33 29
24 18 14 11 11 11 12 13 14 15 16 17 17 19 21 23 26 30 34 37 40 44 48 51 54 56 58 60 62 65 67 72 75 79 83 88 88 87 86 88 90 91 90 87 86 86 87 88 88 88 87 86 86 86 85 84 83 82 82 81 80 81 81 83 86 86 83 80 78 76 74 73 72 70 67 65 61 55 53 51 47 44 43 41 40 40 36 31
21 15 11 10 11 11 12 13 13 14 15 15 16 18 20 23 27 31 34 37 40 44 47 50 53 55 58 60 63 65 68 72 76 78 82 87 90 89 89 91 93 94 94 91 89 87 87 88 88 88 87 87 88 88 87 85 85 84 83 82 81 80 79 82 87 87 84 81 79 78 77 75 73 69 64 65 64 60 55 53 49 46 44 42 40 40 37 34
18 13 10 11 11 11 13 13 13 12 13 14 15 18 21 24 28 32 35 37 40 43 46 49 51 55 57 59 62 65 69 72 77 79 81 86 91 92 93 94 95 96 95 93 91 89 87 87 87 87 88 89 90 90 88 87 87 86 84 84 83 81 80 82 85 84 83 82 80 80 79 77 75 71 66 64 65 62 57 53 50 47 46 44 42 41 40 38
16 12 11 11 11 12 13 13 12 12 12 14 16 19 22 25 28 32 35 37 39 41 44 47 50 54 57 59 61 64 67 72 77 81 83 87 91 94 94 94 95 94 93 93 91 89 87 86 86 87 89 90 90 89 89 90 89 88 86 85 84 83 82 82 83 82 82 81 80 80 81 79 76 73 70 69 67 63 59 54 50 47 46 46 45 46 45 42
15 13 12 12 12 13 13 12 11 12 13 15 17 20 23 25 27 30 33 34 37 39 42 46 50 53 57 60 61 63 66 71 77 81 84 87 91 93 94 94 93 92 92 92 91 89 87 86 86 88 90 90 90 89 90 91 91 90 88 87 85 84 83 83 82 81 81 81 81 81 82 82 79 75 72 70 67 63 59 57 51 45 45 48 48 50 51 46
16 13 12 12 12 13 13 12 12 13 14 16 18 21 24 25 25 27 29 31 34 37 40 46 50 53 57 60 62 63 67 71 75 78 80 83 86 90 93 93 91 91 91 91 91 90 88 88 88 88 89 90 90 90 90 91 91 91 91 90 88 86 85 84 83 83 82 81 81 82 84 84 81 77 73 68 66 64 59 58 56 49 46 50 51 52 54 51
16 13 12 12 12 13 13 13 12 13 15 17 20 23 25 26 25 25 26 28 31 33 38 45 50 54 57 60 62 64 66 70 72 74 77 79 82 85 88 90 90 91 91 91 92 92 91 91 89 88 87 88 89 89 90 90 91 91 92 91 91 90 88 86 87 86 84 82 80 81 83 84 80 78 76 69 66 68 65 60 61 56 51 53 53 52 52 51
14 13 12 12 12 13 14 14 13 14 16 19 23 25 27 26 23 22 23 25 27 30 35 42 49 54 58 61 63 64 64 67 70 72 76 78 79 81 84 86 89 91 92 92 92 92 92 92 91 88 87 88 89 90 91 92 92 92 93 93 93 93 91 89 89 87 86 84 82 81 82 84 81 79 80 75 68 69 71 67 65 63 59 57 56 55 52 50
13 12 12 12 13 15 16 15 14 15 18 21 25 28 27 24 20 18 19 21 23 27 32 38 45 50 55 60 64 66 66 67 69 71 75 77 79 80 81 83 87 90 92 92 92 92 92 92 91 89 88 89 90 91 93 94 93 92 93 94 95 94 93 92 90 88 87 86 85 82 81 83 83 82 83 81 74 70 72 73 71 69 64 59 58 60 60 58
13 11 12 12 14 16 17 16 15 17 20 24 28 29 26 21 17 15 15 17 20 23 28 34 40 45 50 56 63 67 70 71 70 72 75 78 79 80 80 82 85 88 91 92 92 93 93 92 91 91 90 89 89 91 92 93 92 93 94 95 96 95 95 94 91 89 87 86 85 84 81 81 83 84 84 85 83 77 75 76 77 76 72 65 62 63 66 66
13 11 12 13 15 17 17 17 16 19 23 26 29 29 24 19 16 14 13 14 16 19 24 30 36 40 45 51 58 66 72 75 74 73 75 78 80 80 81 82 84 86 89 91 93 93 92 92 92 92 91 89 88 89 91 92 93 95 96 97 96 96 96 94 91 89 87 85 84 83 82 80 81 83 83 84 86 85 81 81 80 79 78 74 69 67 67 68
13 11 13 14 16 18 18 18 18 21 24 28 31 29 23 18 15 13 11 11 13 16 20 24 30 36 41 46 53 61 70 76 77 77 76 77 78 80 81 83 84 85 86 89 92 92 91 92 92 93 92 90 88 87 89 90 92 95 98 98 97 97 97 95 91 90 87 85 84 83 83 81 79 81 83 83 85 86 86 86 84 81 81 79 75 71 69 70
13 12 13 15 17 18 19 19 21 23 26 29 32 29 22 16 13 12 10 9 11 14 17 21 26 32 38 42 48 56 64 72 78 80 80 79 78 79 81 83 84 84 85 87 88 89 90 91 91 92 92 91 88 86 87 89 90 93 97 98 97 97 98 95 93 92 90 86 84 83 82 81 80 81 82 84 84 83 84 87 88 86 83 82 80 76 71 69
13 13 14 16 17 18 18 19 21 24 26 29 31 27 21 17 13 10 9 8 9 12 16 19 23 27 32 38 43 50 56 65 74 81 83 82 80 78 79 82 83 85 85 86 86 86 88 90 90 91 91 91 89 88 88 90 91 94 97 97 97 97 96 95 94 93 91 88 86 85 83 81 81 81 82 84 84 82 84 87 89 88 87 85 84 83 79 74
14 13 14 16 17 18 18 20 21 23 26 30 30 26 21 18 14 11 8 7 7 9 13 16 20 24 29 33 37 42 49 58 66 75 81 84 83 80 79 81 83 85 86 86 86 85 86 88 89 90 90 90 89 89 90 91 92 95 97 97 97 96 96 95 94 93 92 90 88 86 84 83 82 82 82 83 85 85 87 90 91 90 90 89 87 87 86 83
14 13 15 16 17 18 18 20 22 24 27 30 31 26 21 18 15 11 8 6 6 7 10 14 19 24 28 31 33 36 42 50 57 65 74 82 85 84 82 82 83 85 87 87 87 85 85 87 88 89 89 88 89 91 91 91 92 94 96 97 97 97 97 96 96 95 93 92 90 88 86 84 83 84 85 85 85 86 88 91 92 91 90 90 90 88 87 87
14 14 15 16 17 18 19 21 23 25 28 32 32 27 22 19 16 11 9 6 4 6 9 14 18 22 25 29 33 35 39 45 51 58 67 75 83 87 87 85 85 86 87 87 87 86 86 87 87 88 88 88 89 91 92 92 92 93 94 96 97 97 97 97 97 97 96 94 93 91 89 88 86 85 86 87 87 86 87 90 91 90 89 89 90 89 88 87
14 14 15 16 16 17 19 21 24 26 29 32 33 28 23 21 18 13 9 5 3 5 9 13 17 20 21 24 28 31 35 40 44 51 58 66 76 84 88 88 87 86 86 86 87 88 88 88 88 86 86 87 89 90 92 93 92 92 95 97 97 96 96 97 97 97 97 97 97 95 94 93 91 88 87 87 88 89 89 90 91 91 90 89 88 88 88 88
Wind_Direction
296 293 291 288 286 284 281 278 273 267 259 254 251 250 248 244 240 236 232 229 228 228 228 227 225 224 223 224 224 223 223 223 221 218 216 214 213 213 212 212 211 212 213 212 210 209 209 207 205 203 200 200 203 203 201 200 197 191 195 197 189 166 135 133 136 127 133 150 161 172 182 174 126 57 64 66 64 56 49 46 46 49 54 53 51 58 65 67
294 293 291 289 287 284 281 279 277 274 268 260 254 249 247 245 242 238 234 230 227 226 227 227 226 224 223 223 223 224 223 223 221 219 216 214 213 213 213 211 211 212 213 213 211 209 209 208 206 203 200 200 203 203 202 202 197 193 195 195 192 170 147 147 153 153 150 149 158 167 176 167 91 68 83 73 68 64 54 47 48 50 54 55 53 57 65 69
292 291 290 289 287 285 282 279 276 274 272 268 261 253 248 245 243 240 236 232 228 225 224 225 225 224 223 222 222 223 223 222 221 219 217 214 213 213 212 211 210 211 212 213 211 209 209 209 207 204 201 200 202 203 204 203 199 196 195 197 198 178 159 157 165 173 166 158 158 164 171 144 92 140 135 92 79 68 61 51 50 50 54 56 53 56 64 70
289 288 288 287 286 285 283 280 277 274 271 268 265 260 253 247 243 241 239 235 230 226 223 223 224 225 223 222 221 222 223 222 221 219 217 215 213 214 213 211 210 210 211 212 212 210 209 209 207 205 203 200 202 203 204 204 200 198 197 199 200 186 170 160 169 184 181 178 170 163 155 132 150 193 199 116 99 75 68 57 54 52 53 56 53 54 62 70
287 285 284 283 283 283 282 280 278 275 272 268 265 262 258 252 246 242 239 237 233 228 224 222 222 223 224 222 221 221 222 222 221 218 217 215 214 214 213 211 210 210 211 211 211 210 209 209 207 206 204 201 202 203 204 205 201 199 197 198 197 191 177 164 174 187 188 193 188 180 160 151 203 193 181 141 115 88 80 64 60 57 54 57 55 53 58 67
287 284 281 280 279 279 279 279 278 276 273 270 265 262 259 255 250 244 240 237 235 230 226 222 220 221 223 223 221 221 221 221 221 219 217 215 215 214 213 211 211 210 210 211 211 211 210 209 208 207 204 201 202 203 204 205 202 199 196 196 196 195 189 173 173 183 193 202 198 198 175 166 215 190 152 161 131 103 96 80 69 63 57 57 56 55 55 63
286 283 280 277 276 276 276 276 276 276 274 271 267 263 259 255 251 248 243 238 235 232 228 223 220 220 221 222 222 221 220 221 221 219 217 215 215 215 214 212 211 210 210 211 211 211 210 209 208 207 205 202 202 203 203 205 203 200 196 197 197 198 198 182 176 181 193 205 199 200 184 170 200 173 141 188 152 121 111 94 80 69 62 59 57 57 55 59
288 285 282 278 276 274 274 274 273 273 273 272 269 265 260 256 251 248 245 240 235 232 230 226 222 219 219 220 222 222 220 220 220 219 218 216 215 215 214 212 211 210 210 210 210 211 211 210 209 207 205 203 203 204 204 205 204 201 199 200 200 200 201 192 189 186 186 200 200 196 186 169 170 170 182 199 168 139 122 104 89 75 66 62 58 58 57 58
290 289 286 283 279 276 274 273 272 271 270 269 269 266 262 257 252 248 245 242 237 233 230 227 223 220 219 218 220 222 221 220 219 219 218 216 215 215 214 212 211 210 210 210 210 210 210 210 209 207 205 204 204 204 204 205 204 203 202 202 200 198 198 195 195 193 186 191 201 199 184 173 173 177 186 183 178 150 124 112 97 83 70 67 61 59 58 57
294 292 290 288 285 281 277 274 273 272 269 267 266 265 263 259 253 249 245 242 239 234 230 227 225 221 219 218 218 220 221 220 219 218 218 217 216 215 215 213 211 210 210 210 210 210 210 210 209 208 206 205 204 205 205 205 205 204 202 202 199 196 197 197 191 190 194 187 194 202 185 180 185 176 176 178 172 142 120 125 108 93 77 71 65 61 59 57
300 298 295 292 289 285 281 277 275 273 270 267 264 262 261 259 255 250 245 242 239 236 231 227 225 223 220 219 218 219 220 220 219 217 217 218 216 216 216 213 211 210 211 211 210 210 210 209 210 209 207 206 206 205 206 206 207 206 204 202 198 196 197 197 188 182 193 193 192 204 191 183 187 175 178 192 182 160 151 152 128 108 89 77 71 66 61 56
303 301 299 296 293 289 285 280 277 274 272 268 263 260 259 258 255 250 246 242 239 236 233 228 225 223 221 219 218 218 218 220 220 217 216 217 217 216 216 214 212 211 211 211 211 210 210 209 210 210 208 207 206 205 206 206 207 207 206 204 199 197 197 196 191 181 186 194 196 208 200 187 188 181 182 197 199 224 243 182 152 133 103 84 75 70 63 58
305 302 299 297 294 291 288 284 279 276 273 270 265 260 256 255 253 251 246 242 239 236 234 230 225 223 221 219 219 219 217 218 219 217 216 217 216 216 216 215 213 211 211 211 211 210 209 209 209 210 209 208 206 205 205 206 207 207 207 206 201 198 198 198 198 189 184 186 194 204 199 191 194 190 189 192 191 212 233 197 166 150 118 95 82 73 67 62
307 303 300 296 293 291 288 285 281 277 274 271 266 260 255 253 251 250 246 242 238 236 234 232 227 223 221 219 218 219 217 217 217 217 215 216 216 216 216 215 213 212 211 211 211 211 210 209 209 210 210 208 206 204 205 207 208 208 207 206 201 196 200 204 203 198 185 178 189 200 194 193 198 195 197 193 183 199 219 201 177 163 133 105 90 80 72 68
310 306 302 298 294 290 287 284 280 277 274 271 267 261 255 251 248 247 245 241 237 235 233 231 228 224 220 218 218 218 218 216 216 216 215 216 217 215 216 216 214 213 212 211 211 211 210 210 210 211 210 208 206 205 205 207 209 209 208 206 200 194 196 204 203 199 192 180 184 196 191 192 199 198 204 199 185 197 210 201 187 172 149 117 101 94 81 75
313 309 305 300 296 291 287 283 279 276 273 270 267 262 255 250 246 244 242 240 236 234 232 230 228 225 221 219 218 217 218 217 215 214 214 215 217 215 215 216 215 214 213 211 210 210 210 210 211 211 210 207 207 207 206 207 209 210 209 207 201 195 195 204 204 197 198 192 187 194 192 192 197 199 207 207 192 193 204 204 196 179 166 141 115 111 97 86
315 310 306 302 297 292 287 283 279 274 271 269 266 261 255 250 245 242 239 238 235 232 231 230 227 225 222 219 218 217 218 217 215 214 213 215 216 215 214 216 215 214 213 212 210 210 210 210 212 212 210 208 208 208 207 208 209 209 209 208 203 198 198 204 203 196 199 200 194 195 196 195 197 198 208 212 198 192 197 202 202 195 191 186 147 130 117 104
315 311 306 302 298 292 287 283 278 274 270 267 264 260 254 249 244 240 236 235 234 231 230 229 227 225 223 220 218 218 218 218 216 214 214 215 216 215 214 215 215 215 214 213 211 210 210 210 212 213 211 209 210 210 209 208 209 210 210 209 204 200 201 204 203 198 199 203 199 196 198 199 199 201 208 213 207 200 194 192 202 212 213 206 173 148 140 125
315 311 307 303 298 292 287 282 277 273 269 265 261 257 252 248 244 239 235 232 231 230 229 228 226 225 223 221 219 217 218 217 215 214 214 215 215 215 215 215 215 215 215 214 212 210 210 211 211 212 211 210 211 211 210 208 209 211 211 210 207 203 204 206 206 203 202 203 202 201 203 204 203 205 210 212 211 211 202 188 196 213 219 213 191 168 161 145
316 312 308 304 299 293 287 281 276 271 267 262 258 254 250 246 243 238 234 230 228 228 228 227 226 224 222 221 219 217 217 217 215 213 213 215 215 214 215 216 215 215 216 215 213 210 210 211 211 211 212 212 211 210 209 209 209 210 212 212 209 206 207 209 211 209 205 203 203 204 205 207 209 211 214 214 211 212 209 199 196 205 218 221 209 185 175 162
317 312 308 304 299 293 286 280 275 269 265 260 256 251 247 244 241 237 232 229 226 226 227 226 225 223 221 220 219 218 217 218 216 213 212 215 215 214 215 215 215 215 216 216 214 212 210 211 211 211 212 213 211 209 209 210 209 210 211 212 210 208 209 212 215 213 209 208 207 205 207 210 212 215 219 220 215 209 209 210 203 200 212 226 220 194 184 178
317 313 308 304 298 292 285 279 273 268 262 258 253 249 245 241 238 235 231 228 225 224 225 225 224 223 220 219 218 217 217 218 217 214 211 214 215 214 214 215 215 216 216 216 215 213 212 212 211 211 213 213 211 210 210 211 210 210 211 212 212 211 211 214 216 215 213 213 209 206 209 212 214 214 216 218 217 214 214 217 210 200 206 221 222 201 191 189
317 312 308 303 298 292 285 278 272 266 260 255 251 246 242 238 235 232 229 227 225 223 222 223 223 222 220 218 216 216 217 217 217 215 211 212 215 214 214 215 215 216 216 216 215 214 214 213 211 211 213 213 211 210 211 211 211 210 211 212 212 212 212 214 215 215 216 215 209 207 208 209 211 210 210 211 212 216 219 221 218 206 202 213 223 211 198 195
316 312 308 303 298 292 285 278 271 264 258 253 248 243 238 235 232 230 227 225 224 222 221 221 221 221 219 217 214 215 216 217 217 216 212 211 214 215 214 215 215 215 215 215 215 215 215 214 212 211 213 213 211 211 211 211 211 211 212 212 212 213 214 214 214 215 216 215 211 209 208 205 207 209 210 209 207 212 218 219 218 207 199 207 216 210 200 197
316 312 308 304 298 292 285 277 269 262 256 250 244 239 236 233 231 228 227 224 223 222 220 220 219 219 218 216 214 213 215 216 216 216 214 211 213 214 213 214 215 215 214 214 214 215 215 215 213 212 213 213 211 211 212 212 211 211 212 213 212 213 214 215 215 215 215 216 214 211 208 203 203 209 214 214 207 208 214 214 210 203 198 201 211 210 202 197
316 313 309 304 299 292 284 275 267 260 253 247 242 237 234 232 230 227 226 224 222 221 220 219 218 218 217 215 214 212 213 214 215 216 215 212 212 213 213 214 215 214 214 214 214 215 215 215 214 214 213 213 211 211 212 212 211 211 212 213 213 213 215 215 215 215 214 215 215 212 209 200 197 206 213 213 209 208 210 208 203 203 200 197 209 218 209 201
317 314 310 305 299 291 283 274 265 257 250 245 241 236 233 230 229 227 225 224 222 221 220 219 218 217 216 215 214 212 212 213 214 214 215 213 213 213 213 213 214 214 214 214 214 216 216 215 215 215 214 213 212 212 213 213 212 211 212 213 214 214 215 215 215 216 214 213 212 209 208 202 197 204 209 208 209 208 206 205 204 208 205 197 203 215 218 215
319 315 310 305 298 291 281 271 263 254 247 242 240 237 233 230 228 227 225 224 222 221 220 219 218 217 216 214 213 212 212 212 213 214 214 213 213 213 213 213 214 214 213 214 215 216 216 215 215 216 215 214 212 211 213 213 212 212 211 212 214 215 216 215 214 215 214 214 212 206 205 205 202 208 212 207 205 206 205 204 204 208 209 203 201 206 217 227
319 315 310 305 299 289 279 269 261 253 246 241 238 236 234 231 229 227 226 225 223 221 220 219 218 218 216 214 213 213 212 211 212 213 213 213 214 214 213 213 213 213 213 213 215 217 216 215 215 216 216 215 213 212 212 213 213 212 212 212 214 215 216 216 214 215 214 214 214 209 204 205 207 212 216 211 206 204 205 205 204 208 209 204 203 204 206 221
320 316 312 306 298 287 276 266 258 252 246 241 238 236 234 233 231 229 228 226 224 222 221 219 218 218 217 215 214 213 212 211 211 212 212 212 213 214 214 213 213 213 212 212 214 216 216 215 215 215 216 216 214 212 212 213 213 213 212 212 214 215 215 215 214 214 215 214 214 211 208 208 208 211 214 213 210 207 207 208 207 210 211 205 204 206 201 208
320 317 313 305 295 283 273 265 257 251 247 243 241 238 236 234 232 231 229 228 226 224 222 220 218 218 217 216 214 213 212 212 212 211 211 211 212 214 215 214 214 213 213 213 213 215 215 214 214 215 216 216 215 213 212 213 213 212 212 213 214 215 216 216 214 214 214 215 214 212 210 208 206 206 210 212 211 212 213 213 211 212 213 210 209 210 204 201
321 318 312 303 291 280 271 263 257 253 249 245 243 241 238 236 233 232 231 230 228 225 223 221 219 218 218 217 215 213 212 211 212 212 211 210 211 212 213 214 214 214 213 213 214 215 215 214 213 214 216 216 216 215 213 213 214 212 212 213 214 215 216 216 216 215 215 215 214 213 212 210 207 207 212 214 214 216 217 216 216 215 213 213 212 211 208 204
323 319 310 298 286 277 270 264 260 257 254 250 246 243 240 237 235 233 231 231 229 227 225 222 220 219 218 217 216 214 212 211 211 212 211 210 210 211 212 213 213 214 214 214 214 214 214 214 213 213 214 216 216 217 216 215 214 213 213 214 214 215 216 217 216 215 215 215 215 214 214 214 212 212 215 218 219 221 222 221 219 216 214 215 214 211 210 210
324 318 308 296 287 281 274 268 263 260 256 252 247 243 240 238 236 234 232 230 230 229 227 224 222 220 218 217 216 214 212 210 210 212 211 210 209 210 211 212 212 213 213 214 214 214 214 214 213 213 213 214 216 217 217 217 216 214 214 215 214 215 216 217 217 216 215 215 215 215 216 217 218 216 217 220 221 222 222 223 222 218 217 220 222 219 213 213
325 319 310 299 291 282 276 273 267 261 256 251 245 240 237 235 235 235 234 231 230 229 228 226 223 221 219 216 215 213 211 210 209 210 211 210 209 208 210 211 212 212 212 212 213 213 214 214 213 213 213 213 214 216 217 218 217 215 214 215 215 215 215 217 217 216 214 214 214 215 216 218 220 218 219 221 222 220 219 221 222 219 219 222 227 228 219 214
327 322 313 301 292 288 287 284 274 262 254 247 241 239 238 238 239 239 238 235 233 231 229 228 226 223 220 217 214 212 211 210 209 209 210 210 209 208 209 210 211 212 211 211 211 212 213 213 213 213 213 213 214 214 216 217 218 217 215 215 216 215 216 217 218 217 215 214 215 216 216 217 219 219 219 222 223 222 221 221 223 222 221 222 224 224 221 216
329 323 311 303 299 298 294 287 275 263 256 249 246 246 247 248 247 246 243 239 236 233 230 228 227 226 224 219 215 213 211 210 209 209 209 210 209 208 209 211 211 212 212 212 212 212 212 213 213 213 213 214 214 214 215 216 218 218 216 215 215 215 216 218 219 217 216 215 215 217 217 218 219 219 218 220 221 221 221 221 222 220 218 219 217 216 217 217
330 324 316 314 311 305 296 287 279 270 263 258 258 259 258 256 254 251 247 242 238 235 232 229 227 226 225 222 218 214 212 212 210 209 209 209 209 209 209 211 212 212 212 212 213 213 213 212 212 213 214 214 214 215 215 216 217 217 217 217 216 216 216 218 218 217 215 215 215 216 218 218 218 218 218 220 221 221 220 219 217 216 215 215 214 213 216 218
330 331 329 323 314 306 297 288 279 273 270 269 273 276 274 268 263 257 251 245 239 234 230 228 226 224 223 223 219 214 212 213 213 211 210 210 210 209 209 210 211 212 212 213 213 213 214 213 213 213 213 213 213 214 216 217 218 217 217 217 217 217 217 217 218 217 215 215 214 215 216 217 217 217 217 219 220 219 219 218 215 214 215 215 215 216 218 219
333 338 335 322 312 308 299 288 281 279 281 285 291 295 291 284 276 268 257 247 238 232 226 224 224 222 222 222 221 216 212 212 214 213 213 213 212 211 210 210 211 212 212 213 213 213 213 214 214 213 213 213 213 214 216 217 218 219 218 217 217 218 218 217 217 216 214 214 214 214 215 216 216 217 217 218 219 218 216 216 215 214 216 217 218 219 220 220
337 336 327 316 313 311 304 295 289 289 294 300 304 306 302 296 287 276 263 248 237 229 223 221 220 220 219 219 220 219 214 212 213 213 213 214 214 213 212 211 211 212 212 213 213 212 213 214 213 213 214 214 214 214 216 217 219 220 219 218 218 218 217 217 217 215 213 213 213 214 215 215 215 216 216 215 216 216 214 213 213 211 212 215 215 217 218 218
337 328 320 315 315 314 309 302 296 299 306 310 314 315 311 303 290 275 261 248 236 226 221 219 218 218 217 216 217 218 217 214 212 211 212 214 214 214 213 212 212 212 212 213 213 213 213 214 213 212 213 213 213 213 215 216 218 220 220 219 220 219 218 218 218 216 214 214 213 214 215 215 214 215 215 213 213 214 213 214 213 209 209 212 213 214 213 212
336 325 318 316 318 317 311 302 301 310 316 320 324 323 316 305 291 273 256 245 234 224 219 217 217 216 215 214 214 215 217 216 214 211 211 212 213 214 213 213 213 213 213 213 213 213 214 215 214 213 213 213 213 213 214 215 216 219 221 220 220 220 220 219 218 216 215 215 214 214 214 215 215 215 216 215 214 214 214 215 215 213 211 212 214 216 217 218
333 322 315 315 319 319 312 306 311 323 326 328 330 326 318 310 300 283 261 244 232 223 216 214 214 214 214 213 212 212 213 215 215 212 210 210 211 212 213 214 214 214 214 214 214 214 213 214 214 214 214 214 214 214 214 215 215 218 220 221 220 221 221 221 220 218 216 215 216 215 214 214 215 216 216 217 216 216 215 215 217 217 215 214 216 219 221 223
328 319 314 316 322 322 315 313 323 332 333 333 332 329 326 321 312 294 271 250 234 220 213 211 210 210 210 211 211 211 211 213 214 214 212 211 210 210 211 214 214 214 215 215 215 215 214 213 214 213 214 214 215 215 215 215 216 217 219 220 220 220 222 222 221 220 218 217 217 217 215 214 215 216 217 217 218 217 216 216 217 218 218 216 218 220 222 222
324 316 313 316 324 324 318 321 331 336 336 337 337 337 334 328 318 301 277 252 232 218 210 208 208 206 206 208 209 209 210 212 213 214 214 213 211 209 210 212 214 215 215 215 216 216 215 215 214 213 213 214 215 216 216 216 217 219 220 221 220 220 221 221 221 222 221 218 217 218 218 216 216 217 217 218 218 218 218 218 218 218 219 218 217 219 222 223
319 313 313 318 324 322 321 329 337 338 338 341 343 342 337 331 322 308 285 252 228 215 204 202 204 204 204 205 207 207 208 210 212 213 214 214 212 210 209 211 213 214 216 216 216 216 216 216 215 214 214 214 215 215 216 217 218 219 221 221 221 221 221 221 221 221 221 220 218 219 219 217 217 217 218 218 218 219 220 220 219 219 219 218 217 218 220 223
316 313 313 318 322 321 324 333 336 336 340 345 347 344 340 336 331 318 297 264 233 217 205 199 200 202 204 206 207 207 207 208 210 212 213 215 214 212 210 211 212 213 215 217 217 217 217 217 216 215 214 214 214 215 216 218 219 220 220 220 220 222 221 221 222 222 221 221 220 219 219 218 217 218 219 219 218 218 220 220 220 220 220 219 219 219 220 223
315 313 312 315 321 322 326 332 334 336 342 348 349 348 345 343 340 330 307 274 240 218 207 200 198 199 202 205 207 206 206 206 209 211 212 214 215 214 212 211 212 213 214 216 217 217 218 218 217 216 215 214 214 215 217 218 220 221 220 219 219 221 221 221 222 222 222 222 221 220 220 219 218 218 219 220 219 219 221 221 220 220 220 220 220 220 221 223
316 314 312 316 322 323 326 331 334 338 344 349 351 351 351 350 347 339 321 284 240 214 202 196 198 200 200 200 201 203 204 204 206 209 210 212 214 214 213 212 212 213 213 215 216 216 217 218 217 216 215 214 214 216 217 218 221 222 222 220 219 220 220 220 221 222 222 222 221 221 221 221 220 219 219 220 220 221 222 222 221 221 221 221 221 221 222 223
316 314 313 318 323 324 328 332 336 340 346 350 352 354 357 358 354 348 334 302 249 215 202 195 198 204 204 201 200 201 201 201 203 206 208 210 212 213 214 213 213 213 213 214 215 216 217 218 218 216 215 215 215 216 217 218 220 222 223 222 220 220 220 220 220 221 221 221 221 221 221 221 221 221 220 220 221 222 223 224 223 222 222 222 223 223 223 223
316 312 312 317 322 325 330 334 337 342 347 351 352 356 2 4 360 355 347 325 264 212 208 202 200 203 203 201 202 203 202 201 203 206 207 208 210 212 213 214 214 214 214 214 215 215 216 217 219 217 216 216 216 217 218 218 219 221 222 222 221 220 220 220 221 221 221 221 221 221 221 221 221 221 221 221 221 222 223 224 224 223 222 223 223 223 224 224
Height
10908 10907 10906 10905 10905 10904 10904 10904 10904 10905 10906 10906 10906 10907 10908 10909 10910 10912 10914 10916 10919 10922 10924 10927 10929 10932 10934 10936 10938 10940 10942 10945 10949 10953 10956 10958 10960 10962 10964 10967 10971 10974 10976 10980 10982 10986 10989 10993 10996 10999 11002 11005 11007 11009 11011 11013 11015 11018 11019 11020 11023 11025 11026 11027 11028 11028 11028 11028 11028 11028 11028 11028 11028 11028 11028 11027 11027 11027 11025 11024 11024 11022 11019 11018 11017 11015 11013 11012
10904 10903 10902 10901 10901 10900 10900 10900 10900 10900 10900 10901 10902 10902 10903 10904 10905 10907 10908 10910 10913 10916 10919 10921 10924 10926 10929 10931 10933 10935 10938 10941 10945 10949 10952 10954 10956 10957 10960 10964 10967 10970 10973 10976 10979 10983 10986 10989 10993 10997 11000 11003 11005 11007 11009 11011 11014 11016 11018 11020 11022 11024 11025 11027 11027 11027 11028 11029 11029 11029 11029 11029 11028 11028 11028 11029 11028 11028 11027 11026 11025 11024 11021 11019 11018 11016 11015 11014
10901 10899 10898 10897 10897 10896 10896 10895 10895 10895 10895 10895 10896 10897 10898 10899 10900 10901 10903 10905 10907 10910 10913 10915 10918 10921 10923 10926 10928 10930 10933 10936 10940 10944 10948 10950 10952 10953 10956 10960 10963 10966 10969 10972 10976 10980 10983 10986 10990 10994 10997 11000 11002 11005 11007 11009 11012 11015 11017 11019 11021 11023 11025 11026 11027 11027 11028 11028 11029 11029 11029 11028 11028 11030 11030 11030 11029 11028 11028 11028 11027 11025 11023 11021 11020 11018 11017 11015
10897 10896 10894 10893 10892 10891 10891 10890 10890 10890 10890 10890 10891 10892 10893 10894 10895 10896 10898 10900 10901 10904 10907 10910 10912 10915 10918 10920 10923 10926 10928 10930 10934 10939 10943 10945 10947 10949 10952 10956 10959 10962 10965 10968 10973 10977 10980 10983 10987 10991 10994 10998 11000 11002 11005 11007 11011 11013 11015 11017 11020 11022 11024 11025 11026 11027 11027 11027 11027 11028 11028 11028 11030 11032 11031 11030 11030 11029 11029 11029 11029 11027 11025 11023 11021 11020 11018 11017
10893 10892 10891 10889 10888 10887 10886 10885 10885 10885 10885 10885 10885 10886 10888 10889 10890 10891 10892 10894 10896 10898 10901 10904 10907 10909 10912 10915 10918 10920 10922 10925 10929 10933 10937 10940 10943 10945 10948 10951 10954 10957 10961 10964 10969 10973 10976 10980 10983 10987 10991 10995 10998 11000 11003 11005 11009 11011 11014 11017 11019 11021 11023 11025 11026 11027 11027 11027 11027 11027 11028 11030 11032 11032 11031 11030 11030 11030 11030 11030 11030 11029 11027 11025 11023 11022 11020 11019
10889 10887 10886 10885 10884 10882 10881 10880 10879 10879 10879 10879 10880 10881 10882 10884 10885 10886 10887 10888 10890 10892 10895 10897 10901 10903 10906 10909 10912 10914 10917 10920 10924 10928 10932 10935 10938 10941 10944 10947 10950 10953 10957 10961 10965 10969 10973 10976 10980 10983 10987 10992 10995 10998 11001 11003 11006 11009 11012 11015 11017 11020 11022 11024 11026 11027 11027 11027 11028 11028 11029 11030 11031 11031 11031 11031 11030 11030 11030 11031 11031 11030 11028 11026 11024 11024 11022 11020
10884 10882 10881 10880 10879 10877 10877 10876 10874 10874 10873 10873 10874 10875 10876 10878 10879 10880 10881 10882 10884 10887 10889 10891 10894 10897 10900 10903 10906 10908 10911 10915 10918 10922 10926 10930 10933 10936 10939 10943 10946 10950 10954 10957 10961 10965 10969 10972 10976 10980 10984 10989 10993 10995 10998 11001 11004 11007 11010 11013 11016 11018 11021 11023 11025 11027 11028 11028 11029 11030 11030 11030 11031 11031 11031 11031 11031 11031 11031 11031 11031 11031 11029 11027 11026 11025 11024 11021
10878 10877 10875 10874 10873 10872 10871 10870 10869 10868 10867 10867 10867 10868 10870 10871 10873 10874 10875 10876 10878 10881 10883 10886 10888 10891 10893 10897 10899 10902 10906 10909 10912 10916 10920 10924 10928 10931 10934 10938 10942 10946 10950 10953 10957 10961 10964 10968 10972 10976 10981 10986 10989 10992 10995 10998 11002 11005 11008 11011 11014 11017 11020 11024 11025 11027 11029 11028 11029 11030 11030 11030 11030 11030 11031 11032 11032 11032 11032 11031 11031 11031 11030 11029 11027 11026 11025 11023
10873 10871 10869 10868 10867 10866 10865 10864 10864 10863 10862 10861 10861 10861 10863 10864 10865 10867 10868 10870 10872 10875 10877 10880 10882 10884 10887 10890 10893 10896 10899 10902 10906 10911 10915 10920 10923 10926 10930 10934 10939 10942 10945 10948 10952 10956 10959 10964 10969 10973 10978 10982 10985 10989 10992 10995 10999 11002 11004 11007 11011 11014 11018 11021 11025 11029 11030 11029 11029 11030 11030 11030 11029 11030 11031 11032 11032 11032 11032 11032 11031 11031 11031 11030 11028 11027 11026 11025
10868 10866 10864 10862 10860 10859 10859 10858 10857 10856 10856 10855 10854 10855 10855 10857 10858 10860 10861 10863 10866 10868 10871 10874 10876 10878 10880 10883 10886 10888 10892 10896 10901 10906 10910 10915 10919 10922 10925 10930 10935 10938 10940 10943 10947 10951 10955 10961 10966 10971 10975 10979 10982 10986 10989 10993 10996 10998 11001 11004 11008 11010 11012 11015 11020 11027 11029 11029 11029 11030 11031 11031 11030 11029 11031 11032 11032 11032 11032 11032 11032 11032 11031 11030 11029 11029 11028 11026
10863 10861 10858 10856 10854 10852 10851 10850 10850 10849 10849 10848 10848 10848 10848 10849 10850 10852 10854 10856 10859 10862 10864 10867 10869 10872 10874 10877 10879 10882 10887 10891 10896 10902 10906 10909 10914 10917 10920 10925 10930 10933 10935 10939 10942 10947 10952 10957 10963 10967 10972 10975 10977 10981 10986 10990 10993 10995 10998 11001 11004 11007 11009 11012 11017 11021 11025 11029 11029 11030 11031 11031 11030 11030 11030 11032 11032 11032 11033 11033 11033 11033 11032 11031 11030 11029 11029 11028
10858 10855 10852 10849 10847 10845 10843 10842 10842 10841 10841 10841 10841 10841 10841 10841 10842 10844 10846 10849 10852 10854 10857 10860 10863 10865 10867 10870 10873 10877 10882 10885 10889 10896 10900 10904 10908 10911 10915 10920 10925 10928 10931 10935 10939 10943 10948 10954 10958 10962 10966 10969 10972 10976 10981 10985 10988 10991 10995 10998 11001 11004 11007 11010 11014 11016 11019 11026 11031 11031 11031 11031 11030 11029 11030 11031 11031 11032 11033 11033 11033 11033 11033 11031 11030 11030 11030 11029
10851 10848 10846 10843 10840 10838 10835 10834 10833 10833 10832 10832 10833 10833 10833 10834 10835 10836 10838 10841 10844 10847 10850 10852 10855 10858 10861 10865 10867 10870 10874 10876 10881 10889 10894 10897 10902 10906 10910 10915 10920 10923 10926 10930 10935 10939 10944 10949 10953 10956 10960 10963 10967 10971 10977 10981 10984 10987 10991 10995 10998 11002 11004 11007 11011 11013 11013 11021 11029 11030 11029 11030 11030 11029 11028 11029 11030 11032 11033 11033 11033 11034 11033 11032 11031 11030 11030 11030
10843 10840 10837 10835 10832 10829 10827 10825 10824 10823 10823 10823 10824 10824 10825 10826 10827 10828 10830 10833 10836 10839 10842 10844 10848 10850 10854 10858 10860 10862 10865 10868 10874 10882 10888 10891 10895 10901 10905 10909 10914 10917 10921 10925 10930 10935 10941 10945 10947 10950 10953 10957 10963 10969 10974 10977 10980 10984 10987 10991 10995 10999 11002 11004 11008 11012 11013 11017 11023 11024 11025 11028 11029 11028 11027 11027 11029 11031 11032 11033 11033 11034 11034 11033 11032 11031 11031 11031
10834 10831 10828 10825 10823 10820 10818 10816 10814 10814 10813 10813 10814 10815 10816 10817 10818 10820 10822 10824 10827 10830 10833 10836 10839 10842 10847 10850 10851 10854 10856 10860 10868 10875 10882 10885 10888 10895 10899 10903 10908 10912 10916 10922 10926 10931 10936 10940 10942 10944 10947 10954 10961 10966 10970 10973 10977 10980 10983 10987 10992 10995 10999 11001 11005 11010 11013 11015 11019 11021 11023 11026 11026 11027 11027 11027 11028 11029 11031 11033 11033 11034 11034 11033 11033 11032 11032 11031
10824 10821 10817 10814 10812 10810 10807 10805 10804 10803 10803 10803 10804 10805 10806 10808 10810 10811 10813 10815 10818 10821 10824 10826 10829 10833 10838 10841 10843 10847 10848 10853 10861 10867 10874 10877 10881 10889 10893 10897 10902 10907 10912 10917 10921 10925 10929 10933 10935 10937 10943 10952 10958 10961 10966 10970 10972 10976 10979 10984 10988 10992 10995 10998 11002 11007 11011 11014 11016 11019 11021 11022 11024 11025 11026 11026 11026 11028 11030 11032 11033 11034 11034 11034 11033 11033 11033 11032
10814 10810 10806 10803 10800 10798 10795 10794 10793 10792 10792 10793 10793 10794 10796 10798 10800 10801 10803 10805 10808 10812 10814 10817 10821 10825 10828 10832 10837 10840 10842 10848 10856 10862 10867 10871 10874 10882 10887 10890 10895 10901 10906 10910 10914 10918 10923 10927 10930 10934 10941 10949 10953 10956 10960 10963 10966 10970 10974 10980 10984 10989 10992 10995 10999 11004 11008 11011 11013 11015 11017 11020 11022 11024 11025 11025 11025 11026 11028 11030 11032 11033 11033 11034 11034 11033 11033 11033
10803 10798 10794 10791 10788 10785 10783 10781 10781 10781 10781 10782 10782 10783 10785 10787 10789 10791 10793 10796 10799 10802 10805 10809 10812 10816 10820 10825 10831 10835 10838 10844 10851 10858 10862 10865 10869 10876 10880 10884 10890 10895 10900 10903 10908 10913 10918 10922 10926 10932 10939 10945 10948 10950 10954 10958 10963 10968 10972 10977 10982 10986 10989 10992 10996 11001 11005 11008 11010 11013 11015 11018 11021 11023 11024 11025 11024 11025 11027 11029 11031 11032 11033 11033 11033 11034 11034 11034
10791 10785 10781 10777 10774 10771 10769 10768 10768 10768 10769 10770 10771 10772 10774 10776 10778 10780 10784 10787 10791 10793 10796 10799 10803 10807 10813 10818 10823 10829 10833 10837 10843 10850 10854 10857 10863 10869 10874 10879 10884 10889 10893 10896 10902 10909 10914 10918 10923 10929 10934 10937 10939 10944 10951 10957 10962 10965 10969 10973 10979 10983 10986 10989 10993 10997 11001 11005 11008 11011 11013 11016 11019 11021 11023 11024 11024 11024 11026 11028 11029 11031 11032 11032 11033 11033 11034 11034
10777 10772 10767 10763 10760 10757 10755 10755 10755 10755 10757 10758 10759 10761 10762 10765 10766 10770 10774 10777 10781 10782 10785 10790 10795 10800 10805 10810 10816 10822 10825 10828 10834 10841 10847 10849 10855 10862 10868 10873 10878 10882 10885 10890 10897 10904 10909 10913 10918 10923 10925 10927 10932 10940 10948 10952 10956 10959 10963 10968 10974 10979 10983 10986 10989 10992 10998 11002 11006 11008 11011 11015 11017 11019 11022 11024 11024 11024 11025 11026 11028 11030 11031 11031 11032 11033 11033 11034
10763 10757 10752 10748 10746 10744 10742 10741 10742 10743 10744 10746 10747 10749 10751 10753 10755 10758 10763 10767 10771 10773 10776 10782 10787 10792 10797 10802 10809 10815 10819 10822 10827 10834 10840 10843 10848 10855 10861 10865 10871 10875 10878 10883 10892 10899 10904 10908 10912 10915 10918 10921 10929 10938 10943 10946 10949 10954 10958 10963 10970 10975 10980 10983 10984 10990 10996 11000 11003 11007 11010 11013 11015 11018 11021 11022 11023 11023 11024 11026 11027 11028 11030 11030 11032 11032 11033 11033
10749 10743 10738 10734 10732 10730 10729 10729 10729 10730 10732 10734 10735 10738 10741 10742 10744 10748 10753 10757 10761 10764 10768 10774 10778 10784 10788 10794 10801 10808 10812 10815 10820 10827 10833 10837 10841 10847 10852 10858 10863 10866 10871 10880 10889 10895 10899 10901 10905 10909 10912 10917 10926 10934 10937 10940 10945 10951 10955 10960 10965 10971 10975 10977 10980 10987 10992 10995 11001 11006 11009 11011 11013 11017 11018 11018 11020 11022 11023 11024 11026 11027 11028 11029 11031 11032 11032 11033
10735 10729 10725 10721 10719 10718 10717 10717 10717 10718 10720 10722 10724 10727 10729 10731 10734 10738 10742 10746 10750 10754 10759 10765 10770 10775 10780 10787 10794 10799 10801 10805 10810 10818 10825 10830 10832 10838 10845 10850 10854 10860 10867 10876 10883 10889 10891 10893 10898 10903 10905 10912 10922 10927 10931 10935 10942 10947 10950 10954 10959 10964 10968 10971 10976 10982 10985 10989 10996 11001 11004 11007 11010 11013 11013 11013 11016 11019 11020 11022 11024 11025 11026 11028 11029 11031 11031 11032
10722 10717 10713 10710 10708 10707 10706 10706 10706 10707 10709 10711 10713 10716 10718 10721 10724 10728 10732 10736 10740 10744 10750 10756 10762 10767 10772 10779 10784 10788 10792 10798 10803 10810 10817 10822 10825 10831 10838 10842 10846 10854 10861 10868 10875 10879 10880 10884 10891 10896 10899 10906 10915 10921 10925 10930 10937 10942 10945 10949 10954 10958 10962 10967 10972 10975 10979 10985 10991 10995 11000 11004 11007 11009 11009 11010 11014 11015 11017 11020 11022 11023 11025 11026 11028 11029 11031 11031
10711 10706 10702 10700 10698 10696 10696 10696 10696 10698 10699 10701 10703 10706 10709 10711 10715 10719 10723 10727 10731 10736 10741 10747 10752 10757 10763 10768 10773 10778 10785 10790 10796 10802 10807 10813 10818 10823 10830 10834 10839 10847 10853 10859 10866 10869 10871 10878 10886 10891 10894 10901 10910 10915 10919 10924 10931 10938 10941 10944 10949 10954 10958 10961 10964 10969 10975 10982 10987 10992 10997 11001 11004 11005 11006 11009 11012 11012 11014 11018 11020 11021 11023 11024 11026 11028 11029 11030
10701 10696 10692 10690 10689 10687 10687 10687 10688 10689 10691 10692 10694 10697 10700 10703 10706 10710 10714 10718 10722 10727 10732 10737 10743 10748 10753 10759 10764 10771 10775 10778 10785 10791 10796 10806 10811 10814 10821 10826 10831 10838 10845 10851 10857 10859 10864 10874 10881 10885 10889 10896 10904 10910 10913 10919 10925 10932 10936 10939 10945 10949 10951 10954 10959 10965 10972 10978 10983 10988 10993 10998 11001 11002 11003 11006 11008 11010 11012 11015 11017 11019 11020 11022 11025 11027 11028 11029
10691 10687 10684 10682 10681 10680 10679 10679 10680 10681 10683 10685 10686 10689 10692 10695 10699 10702 10705 10709 10713 10718 10722 10728 10734 10739 10745 10751 10756 10761 10764 10769 10776 10781 10789 10799 10803 10807 10814 10819 10823 10830 10837 10845 10851 10853 10859 10869 10874 10879 10884 10891 10898 10905 10908 10913 10919 10924 10930 10935 10938 10940 10942 10948 10955 10962 10968 10974 10978 10984 10989 10994 10997 10998 11000 11002 11005 11007 11010 11012 11015 11017 11018 11020 11023 11026 11027 11028
10683 10680 10677 10675 10674 10673 10673 10673 10673 10675 10676 10678 10680 10682 10685 10689 10692 10694 10698 10701 10704 10709 10714 10720 10726 10731 10737 10744 10747 10751 10756 10762 10768 10773 10782 10790 10795 10800 10806 10811 10816 10824 10832 10840 10845 10847 10853 10863 10868 10872 10879 10885 10892 10898 10900 10904 10911 10917 10923 10928 10931 10933 10937 10944 10952 10957 10962 10968 10974 10980 10985 10989 10992 10994 10996 10999 11001 11003 11006 11010 11013 11015 11017 11018 11021 11024 11026 11027
10676 10673 10670 10669 10668 10667 10667 10667 10668 10669 10671 10673 10675 10676 10679 10682 10685 10688 10691 10693 10697 10702 10707 10712 10718 10724 10730 10734 10737 10741 10746 10752 10757 10765 10775 10782 10788 10793 10798 10804 10810 10817 10827 10835 10838 10840 10847 10855 10860 10866 10873 10878 10883 10888 10892 10898 10904 10910 10917 10922 10925 10927 10932 10940 10948 10952 10956 10962 10969 10976 10981 10984 10987 10989 10992 10996 10998 11000 11004 11007 11010 11012 11014 11017 11019 11022 11024 11026
10670 10667 10665 10663 10663 10662 10662 10662 10663 10664 10666 10668 10669 10671 10674 10677 10679 10682 10684 10687 10691 10695 10699 10705 10710 10716 10720 10724 10728 10733 10739 10745 10750 10758 10767 10775 10781 10786 10791 10798 10805 10813 10820 10826 10829 10831 10838 10846 10852 10859 10865 10868 10874 10880 10887 10893 10897 10903 10911 10915 10917 10920 10925 10932 10939 10945 10951 10957 10964 10971 10976 10979 10982 10984 10988 10991 10995 10998 11001 11004 11007 11009 11012 11014 11017 11019 11021 11024
10665 10662 10660 10659 10658 10658 10658 10659 10660 10660 10662 10663 10665 10667 10669 10671 10674 10676 10678 10681 10685 10688 10692 10697 10702 10706 10710 10715 10722 10727 10732 10738 10744 10751 10759 10766 10773 10779 10786 10794 10800 10807 10813 10817 10819 10821 10826 10836 10845 10851 10855 10860 10867 10873 10880 10884 10888 10896 10903 10906 10910 10914 10919 10925 10933 10941 10947 10953 10959 10965 10970 10974 10977 10980 10983 10987 10992 10995 10998 11001 11004 11007 11009 11012 11014 11016 11018 11020
10660 10658 10656 10655 10654 10654 10655 10656 10656 10657 10658 10660 10661 10663 10665 10666 10669 10671 10672 10675 10677 10681 10684 10688 10693 10698 10702 10709 10715 10719 10725 10731 10737 10743 10750 10758 10764 10771 10780 10787 10794 10800 10804 10806 10808 10811 10818 10828 10836 10842 10847 10854 10861 10867 10874 10877 10880 10889 10895 10899 10905 10911 10916 10923 10931 10938 10943 10947 10954 10960 10965 10969 10973 10976 10979 10983 10987 10991 10995 10998 11001 11004 11007 11009 11010 11012 11015 11017
10655 10654 10653 10652 10651 10651 10652 10653 10653 10654 10655 10656 10658 10659 10660 10662 10664 10665 10667 10669 10671 10674 10676 10680 10686 10691 10696 10702 10707 10712 10719 10725 10730 10734 10741 10749 10756 10764 10771 10777 10783 10788 10791 10793 10797 10802 10810 10819 10826 10832 10839 10849 10856 10862 10868 10871 10876 10884 10890 10894 10901 10907 10912 10919 10926 10932 10937 10943 10949 10955 10960 10964 10968 10972 10976 10979 10983 10987 10991 10995 10998 11002 11004 11005 11007 11009 11012 11015
10652 10651 10650 10649 10649 10649 10650 10650 10651 10651 10652 10653 10654 10655 10656 10658 10659 10660 10661 10663 10665 10667 10669 10673 10679 10683 10689 10694 10699 10706 10712 10717 10721 10725 10732 10740 10748 10755 10763 10767 10770 10772 10776 10782 10789 10795 10803 10811 10819 10825 10833 10842 10850 10856 10862 10867 10873 10879 10883 10889 10896 10901 10906 10913 10918 10922 10928 10936 10943 10948 10955 10959 10963 10969 10973 10975 10979 10983 10987 10991 10994 10997 11000 11003 11005 11007 11010 11013
10649 10648 10648 10647 10647 10647 10647 10647 10648 10648 10649 10650 10651 10652 10653 10654 10654 10655 10655 10657 10659 10660 10662 10666 10670 10675 10680 10685 10691 10697 10702 10706 10711 10715 10721 10729 10736 10743 10749 10753 10755 10758 10765 10773 10781 10788 10796 10804 10812 10821 10829 10837 10842 10848 10856 10861 10865 10871 10878 10885 10890 10895 10901 10904 10904 10909 10920 10930 10937 10943 10949 10953 10957 10965 10971 10972 10974 10979 10982 10985 10989 10993 10997 11000 11003 11005 11008 11010
10647 10646 10646 10645 10645 10645 10645 10645 10645 10646 10646 10646 10647 10648 10648 10649 10650 10649 10650 10652 10653 10654 10656 10660 10664 10668 10671 10676 10682 10687 10691 10696 10700 10705 10710 10716 10724 10730 10734 10735 10737 10744 10753 10763 10771 10780 10788 10797 10807 10815 10822 10828 10833 10840 10848 10853 10856 10863 10871 10877 10881 10889 10895 10894 10893 10905 10920 10928 10934 10939 10944 10947 10952 10961 10967 10968 10970 10975 10979 10982 10987 10991 10995 10998 11001 11004 11006 11008
10645 10645 10644 10643 10643 10643 10642 10642 10642 10643 10643 10643 10644 10644 10644 10645 10644 10643 10643 10644 10646 10648 10650 10654 10657 10660 10663 10669 10675 10679 10684 10687 10691 10696 10700 10704 10712 10718 10720 10723 10728 10739 10751 10760 10768 10776 10784 10793 10802 10810 10815 10821 10827 10834 10840 10845 10848 10856 10864 10869 10874 10881 10885 10884 10889 10905 10918 10924 10929 10934 10939 10943 10948 10956 10960 10961 10966 10971 10976 10980 10984 10987 10992 10996 11000 11002 11003 11005
10644 10643 10642 10641 10641 10641 10640 10640 10639 10639 10639 10640 10640 10640 10639 10639 10638 10637 10636 10637 10639 10641 10643 10647 10649 10652 10656 10660 10666 10672 10678 10680 10681 10685 10688 10692 10698 10705 10711 10718 10728 10740 10750 10759 10768 10775 10782 10789 10796 10802 10807 10814 10823 10830 10834 10837 10840 10848 10857 10863 10868 10873 10876 10878 10886 10899 10910 10917 10923 10927 10932 10938 10943 10948 10952 10955 10961 10968 10973 10976 10978 10982 10988 10992 10997 10999 11000 11001
10642 10642 10641 10640 10639 10639 10638 10637 10637 10636 10636 10636 10636 10635 10633 10632 10631 10630 10629 10630 10631 10633 10637 10639 10641 10644 10646 10649 10655 10663 10669 10671 10673 10677 10681 10685 10692 10700 10707 10716 10728 10739 10747 10755 10764 10771 10777 10783 10789 10793 10798 10808 10817 10823 10827 10831 10835 10842 10848 10853 10859 10864 10868 10873 10881 10893 10903 10909 10914 10918 10922 10927 10932 10938 10943 10949 10958 10964 10969 10973 10976 10980 10984 10988 10993 10995 10996 10999
10640 10639 10639 10639 10638 10637 10636 10635 10635 10634 10633 10632 10631 10629 10627 10625 10624 10622 10621 10622 10623 10625 10628 10630 10632 10635 10638 10642 10647 10653 10659 10663 10668 10676 10682 10687 10694 10700 10706 10716 10727 10735 10742 10750 10758 10764 10770 10776 10782 10788 10795 10804 10812 10817 10822 10827 10832 10835 10838 10844 10850 10853 10859 10866 10872 10882 10892 10899 10905 10909 10912 10917 10925 10932 10939 10949 10956 10960 10965 10971 10975 10978 10981 10984 10989 10992 10994 10996
10638 10637 10637 10636 10635 10634 10633 10633 10632 10631 10629 10628 10627 10624 10621 10619 10617 10614 10613 10613 10614 10617 10620 10621 10623 10626 10630 10635 10640 10645 10652 10658 10665 10674 10682 10687 10694 10701 10708 10716 10723 10728 10735 10743 10749 10756 10761 10765 10773 10783 10791 10798 10806 10812 10817 10821 10823 10825 10830 10838 10840 10842 10851 10856 10860 10871 10883 10891 10898 10902 10905 10914 10923 10928 10936 10944 10946 10950 10958 10964 10967 10971 10972 10974 10980 10986 10989 10990
10637 10635 10635 10634 10633 10632 10631 10630 10629 10628 10626 10624 10622 10619 10616 10613 10610 10608 10606 10606 10607 10610 10611 10612 10614 10617 10621 10628 10633 10639 10647 10653 10660 10668 10674 10681 10688 10696 10704 10712 10717 10721 10728 10734 10740 10749 10754 10758 10768 10778 10784 10789 10796 10801 10804 10809 10814 10817 10823 10829 10831 10836 10844 10848 10854 10868 10880 10885 10891 10896 10901 10910 10917 10921 10926 10931 10934 10941 10951 10956 10959 10962 10963 10966 10973 10979 10982 10982
10636 10634 10632 10631 10630 10629 10628 10627 10627 10625 10622 10620 10617 10614 10610 10607 10605 10603 10601 10601 10601 10603 10604 10605 10607 10611 10616 10622 10627 10634 10641 10647 10653 10660 10666 10673 10681 10689 10697 10704 10709 10715 10720 10726 10733 10741 10748 10754 10764 10773 10776 10779 10784 10788 10793 10800 10808 10810 10812 10816 10822 10831 10838 10843 10852 10864 10873 10879 10884 10890 10897 10905 10911 10914 10919 10924 10929 10936 10944 10949 10954 10957 10960 10966 10971 10973 10974 10976
10634 10632 10631 10630 10628 10627 10626 10624 10623 10621 10619 10616 10613 10610 10605 10602 10599 10597 10596 10596 10597 10598 10599 10601 10603 10606 10611 10615 10620 10627 10633 10638 10644 10651 10657 10663 10672 10682 10690 10696 10701 10707 10713 10719 10726 10732 10739 10747 10756 10764 10769 10772 10776 10781 10788 10796 10800 10799 10798 10805 10817 10827 10831 10838 10849 10858 10867 10875 10880 10885 10892 10898 10903 10908 10914 10919 10924 10930 10937 10942 10946 10951 10956 10962 10964 10965 10967 10970
10631 10630 10629 10628 10626 10625 10623 10622 10620 10618 10616 10613 10610 10605 10601 10597 10594 10593 10592 10592 10593 10594 10595 10596 10598 10601 10605 10609 10614 10620 10626 10631 10637 10643 10649 10655 10663 10673 10681 10687 10693 10699 10705 10712 10718 10724 10733 10739 10745 10753 10761 10766 10770 10776 10784 10789 10791 10788 10787 10797 10811 10819 10824 10833 10845 10854 10862 10870 10877 10882 10888 10893 10898 10904 10909 10913 10916 10923 10929 10934 10938 10943 10949 10955 10956 10957 10960 10963
10629 10628 10626 10625 10624 10622 10620 10619 10617 10615 10612 10610 10605 10601 10597 10594 10591 10590 10589 10589 10589 10590 10591 10593 10595 10597 10600 10603 10608 10613 10619 10624 10630 10636 10642 10649 10657 10666 10673 10679 10685 10692 10698 10704 10710 10718 10726 10731 10737 10746 10754 10760 10766 10774 10780 10783 10783 10782 10783 10793 10805 10811 10817 10829 10840 10848 10856 10866 10873 10877 10883 10890 10895 10899 10903 10906 10909 10917 10923 10926 10930 10934 10940 10946 10950 10952 10955 10958
10626 10625 10624 10623 10622 10620 10618 10616 10614 10612 10609 10606 10602 10597 10594 10592 10589 10587 10586 10586 10586 10586 10588 10589 10591 10593 10596 10599 10603 10607 10612 10618 10625 10630 10635 10642 10650 10659 10666 10671 10678 10685 10691 10696 10703 10712 10718 10724 10733 10741 10749 10756 10763 10769 10772 10773 10774 10774 10777 10789 10799 10803 10812 10824 10833 10839 10848 10858 10866 10870 10878 10886 10890 10892 10895 10898 10904 10912 10916 10918 10922 10927 10932 10938 10942 10946 10949 10952
10624 10623 10622 10621 10619 10618 10616 10614 10612 10610 10608 10604 10600 10595 10591 10589 10587 10584 10583 10583 10583 10584 10585 10586 10588 10590 10593 10595 10598 10602 10607 10613 10617 10623 10629 10636 10644 10653 10661 10667 10673 10680 10684 10689 10697 10706 10712 10718 10727 10734 10741 10750 10757 10760 10761 10761 10761 10761 10766 10780 10791 10797 10809 10821 10827 10833 10841 10850 10859 10865 10871 10878 10882 10886 10889 10891 10898 10903 10902 10905 10912 10919 10924 10930 10934 10938 10942 10945
10623 10622 10620 10619 10618 10616 10614 10612 10611 10609 10606 10602 10598 10594 10589 10586 10584 10582 10581 10580 10581 10582 10583 10585 10586 10587 10590 10592 10595 10599 10603 10607 10612 10617 10625 10631 10638 10646 10655 10662 10667 10672 10677 10683 10690 10699 10705 10712 10720 10727 10734 10744 10750 10751 10752 10752 10751 10752 10760 10774 10785 10792 10803 10814 10820 10826 10834 10843 10852 10858 10863 10868 10874 10879 10881 10884 10889 10891 10889 10894 10903 10908 10914 10920 10924 10928 10933 10937
10621 10620 10618 10617 10616 10614 10612 10610 10608 10606 10603 10599 10595 10592 10588 10584 10582 10580 10578 10578 10579 10580 10581 10583 10583 10584 10586 10588 10591 10595 10598 10603 10608 10613 10619 10625 10632 10639 10646 10653 10659 10664 10669 10676 10683 10692 10698 10704 10710 10718 10728 10738 10741 10740 10742 10744 10745 10748 10757 10769 10778 10784 10793 10804 10810 10817 10826 10834 10843 10850 10855 10861 10866 10869 10871 10874 10878 10882 10884 10888 10894 10899 10905 10911 10916 10921 10926 10931
10619 10617 10616 10615 10613 10612 10610 10608 10606 10603 10599 10596 10593 10589 10586 10583 10580 10578 10577 10576 10577 10578 10579 10580 10580 10581 10583 10586 10588 10590 10594 10598 10602 10606 10612 10618 10623 10630 10637 10643 10649 10654 10661 10669 10676 10685 10692 10696 10701 10711 10721 10728 10729 10729 10731 10734 10737 10742 10750 10760 10770 10778 10787 10795 10802 10809 10816 10823 10831 10838 10843 10849 10854 10858 10861 10864 10869 10875 10877 10879 10885 10892 10897 10902 10907 10914 10920 10924
10617 10616 10614 10613 10612 10610 10608 10606 10603 10600 10597 10594 10590 10587 10584 10581 10579 10577 10576 10575 10576 10576 10577 10577 10578 10579 10582 10585 10587 10589 10592 10596 10599 10603 10608 10612 10617 10623 10630 10636 10642 10648 10655 10663 10669 10676 10682 10687 10693 10703 10712 10716 10719 10721 10723 10727 10731 10735 10739 10748 10758 10769 10779 10786 10793 10801 10807 10812 10818 10824 10829 10835 10840 10846 10851 10856 10862 10866 10867 10869 10875 10883 10889 10894 10899 10905 10911 10916